Location: Rogalle
(42.8890°N, 1.1916°E)
Time: 02:21:41
(UTC+00:00)

Cosmos 1953 Rocket - Pass Details

Date: 13 December 2025
Orbit: 598 x 627 km, 82.5° (Epoch: 17 January)

Event Time Altitude Azimuth Distance (km) Brightness Sun altitude
Rises 17:42:40 0° 352° (N) 2,918 6.9 -14.3°
Reaches altitude 10° 17:44:54 10° 353° (N) 2,009 6.1 -14.7°
Maximum altitude 17:49:22 83° 81° (E) 638 3.5 -15.5°
Drops below altitude 10° 17:53:48 10° 170° (S) 1,995 6.2 -16.3°
Sets 17:56:01 0° 171° (S) 2,897 7.1 -16.7°
